{"data":{"norad_id":64674,"epoch":"2026-09-20T08:39:21.838752Z","epoch_age_seconds":143631,"freshness":"FRESH","line1":"1 64674U 25139L   26263.36066943  .00025018  00000+0  74814-3 0  9995","line2":"2 64674  53.1588 298.2355 0001213 104.6593 255.4544 15.34440502 70057","mean_motion":15.34440502,"eccentricity":0.0001213,"inclination_deg":53.1588,"raan_deg":298.2355,"arg_perigee_deg":104.6593,"mean_anomaly_deg":255.4544,"bstar":0.00074814,"rev_number":7005,"period_min":93.845280942669,"perigee_km":461.7530830563,"apogee_km":463.41264169491,"semimajor_km":6840.7198623756,"source":"CELESTRAK","updated_at":"2026-09-21T09:00:35.398984Z"}}